Visibility
15.0 15.0 15.0 13.0 14.9 15.0 7.5 1.5 0.1 7.4 15.0 15.0 15.0 15.0 15.0 15.0 15.0 15.0 15.0 15.0 15.0 15.0 14.3 11.5 6.0 5.0 7.6 8.0 12.7 6.5 15.0 15.0 15.0 15.0 15.0 15.0 15.0 15.0 15.0 15.0 15.0 15.0 15.0 15.0
15.0 15.0 15.0 15.0 15.0 15.0 15.0 15.0 7.1 13.3 11.7 15.0 15.0 14.9 7.3 15.0 15.0 15.0 15.0 15.0 15.0 15.0 15.0 15.0 15.0 15.0 7.6 12.6 5.9 4.9 14.8 7.1 14.8 15.0 15.0 15.0 15.0 15.0 15.0 15.0 15.0 15.0 15.0 15.0
15.0 15.0 15.0 15.0 15.0 15.0 15.0 7.7 14.8 5.6 10.0 15.0 10.3 7.2 15.0 15.0 15.0 15.0 15.0 15.0 15.0 15.0 15.0 15.0 15.0 15.0 15.0 15.0 15.0 15.0 8.5 14.6 13.9 7.5 11.5 15.0 15.0 15.0 15.0 15.0 15.0 15.0 15.0 15.0
1.1 10.6 3.5 15.0 15.0 15.0 15.0 15.0 15.0 15.0 11.1 15.0 14.0 8.7 15.0 15.0 15.0 15.0 15.0 15.0 15.0 15.0 15.0 15.0 15.0 15.0 15.0 15.0 15.0 15.0 15.0 15.0 15.0 7.2 12.6 15.0 11.4 15.0 15.0 15.0 15.0 15.0 15.0 15.0
4.3 2.0 11.7 15.0 15.0 15.0 12.1 11.1 15.0 13.6 15.0 12.7 15.0 14.3 15.0 15.0 15.0 15.0 15.0 15.0 15.0 15.0 15.0 15.0 15.0 15.0 15.0 15.0 15.0 15.0 15.0 15.0 15.0 15.0 14.0 9.6 12.3 14.5 15.0 15.0 15.0 15.0 15.0 15.0
2.6 15.0 0.1 15.0 15.0 15.0 15.0 14.0 15.0 15.0 15.0 14.1 15.0 15.0 15.0 15.0 15.0 15.0 15.0 15.0 15.0 15.0 15.0 15.0 15.0 15.0 15.0 15.0 15.0 15.0 15.0 15.0 15.0 15.0 15.0 15.0 10.8 0.2 13.0 9.4 5.1 6.8 0.8 15.0
15.0 15.0 15.0 15.0 15.0 15.0 4.2 0.3 15.0 15.0 15.0 15.0 15.0 15.0 15.0 15.0 15.0 15.0 15.0 15.0 15.0 15.0 15.0 15.0 15.0 15.0 15.0 15.0 15.0 15.0 15.0 15.0 15.0 15.0 15.0 15.0 15.0 15.0 1.2 0.7 0.9 0.3 0.1 3.3
7.0 15.0 15.0 15.0 15.0 13.4 14.3 15.0 15.0 15.0 15.0 15.0 15.0 15.0 15.0 15.0 15.0 15.0 15.0 15.0 15.0 15.0 15.0 15.0 15.0 15.0 15.0 8.7 15.0 15.0 15.0 15.0 15.0 15.0 15.0 15.0 15.0 15.0 13.2 12.3 9.6 5.8 9.9 0.7
14.9 15.0 15.0 15.0 15.0 15.0 14.5 14.2 14.3 14.8 15.0 15.0 15.0 15.0 15.0 15.0 15.0 15.0 15.0 15.0 15.0 15.0 15.0 15.0 15.0 15.0 15.0 6.0 15.0 15.0 15.0 15.0 15.0 15.0 15.0 15.0 15.0 15.0 15.0 9.9 1.4 1.6 0.9 1.4
12.8 15.0 13.9 4.7 15.0 15.0 15.0 15.0 15.0 15.0 15.0 15.0 15.0 15.0 15.0 15.0 15.0 15.0 15.0 15.0 15.0 15.0 15.0 15.0 15.0 15.0 15.0 15.0 15.0 15.0 15.0 15.0 15.0 15.0 15.0 15.0 15.0 15.0 13.4 1.7 0.5 0.6 0.4 0.4
8.4 9.4 6.5 6.5 12.4 15.0 15.0 15.0 15.0 15.0 15.0 15.0 15.0 15.0 15.0 15.0 15.0 15.0 15.0 15.0 15.0 15.0 15.0 15.0 15.0 15.0 15.0 15.0 15.0 15.0 15.0 15.0 15.0 6.5 3.0 5.4 0.8 0.9 1.6 0.3 0.4 0.6 0.4 0.3
0.0 0.6 0.1 0.2 14.2 15.0 15.0 15.0 15.0 15.0 15.0 15.0 15.0 15.0 15.0 15.0 15.0 15.0 15.0 15.0 15.0 15.0 15.0 1.7 8.8 8.7 10.5 15.0 15.0 15.0 15.0 13.1 9.0 11.2 11.3 2.6 3.2 1.1 0.3 0.2 0.1 0.1 0.1 0.3
0.1 7.2 2.7 9.3 7.8 14.9 15.0 15.0 15.0 15.0 15.0 15.0 15.0 15.0 15.0 15.0 15.0 15.0 15.0 15.0 14.2 6.7 11.7 5.2 1.5 0.5 0.5 10.6 15.0 10.3 2.9 4.5 12.0 10.9 5.0 1.6 0.6 0.3 0.3 0.1 0.4 0.4 0.2 0.1
5.0 15.0 15.0 15.0 15.0 15.0 15.0 15.0 15.0 15.0 15.0 15.0 15.0 15.0 15.0 5.0 12.4 12.0 2.0 8.3 15.0 15.0 7.4 8.9 15.0 0.4 0.3 10.5 15.0 15.0 14.9 3.6 0.4 0.4 1.6 1.3 0.8 0.4 0.4 0.3 0.2 0.1 0.1 0.1
15.0 15.0 15.0 15.0 15.0 15.0 15.0 15.0 15.0 15.0 15.0 8.5 15.0 15.0 15.0 15.0 7.4 1.1 3.7 15.0 15.0 15.0 14.3 15.0 15.0 2.0 0.5 2.7 9.4 15.0 14.9 3.9 2.9 6.1 3.4 1.8 1.3 0.8 1.8 4.7 7.7 0.2 0.6 2.7
15.0 15.0 15.0 15.0 15.0 15.0 15.0 15.0 13.9 2.0 7.7 11.0 12.9 9.5 14.9 15.0 10.9 1.6 1.0 2.1 4.6 1.8 12.9 11.7 12.3 6.8 9.1 10.9 14.5 15.0 15.0 12.4 6.0 2.0 2.9 12.9 15.0 12.3 12.0 9.3 5.1 2.4 1.2 0.6
14.9 1.0 3.5 4.2 3.1 0.8 0.2 0.5 1.3 0.9 1.6 1.1 0.6 1.0 1.4 0.7 0.7 1.0 3.0 10.9 6.6 14.8 15.0 15.0 15.0 15.0 15.0 15.0 15.0 15.0 15.0 15.0 15.0 15.0 3.5 2.1 3.2 0.8 1.1 7.5 14.6 8.2 0.7 2.8
3.4 0.6 0.6 4.7 2.7 3.5 0.9 2.6 10.4 14.4 1.0 0.5 1.4 1.8 0.6 0.3 0.3 0.3 0.6 15.0 15.0 15.0 15.0 15.0 15.0 15.0 15.0 15.0 15.0 15.0 15.0 15.0 15.0 15.0 15.0 15.0 12.6 2.4 12.6 13.4 10.4 12.5 7.7 15.0
15.0 3.3 3.1 8.5 15.0 15.0 9.8 3.5 2.0 1.8 1.2 1.3 3.1 0.7 0.5 6.8 10.0 14.6 15.0 15.0 15.0 15.0 15.0 15.0 15.0 15.0 15.0 15.0 15.0 15.0 15.0 15.0 15.0 15.0 15.0 13.3 15.0 15.0 10.3 1.6 1.5 3.9 3.7 4.2
1.3 3.9 7.2 1.9 11.4 13.3 1.0 0.6 0.9 0.7 0.6 1.4 3.7 2.7 1.0 1.9 15.0 15.0 15.0 12.5 6.8 15.0 15.0 15.0 15.0 15.0 15.0 15.0 15.0 15.0 15.0 15.0 15.0 6.0 14.7 15.0 15.0 15.0 4.6 4.7 2.7 1.8 2.6 1.2
2.0 4.9 3.7 5.7 1.3 3.0 4.2 8.0 12.5 8.0 15.0 15.0 15.0 15.0 13.7 15.0 15.0 15.0 15.0 13.6 15.0 15.0 15.0 15.0 15.0 14.3 15.0 15.0 15.0 15.0 15.0 15.0 15.0 14.8 10.6 2.0 6.0 14.5 5.2 2.6 2.4 4.1 7.1 5.9
2.6 2.7 1.7 2.7 2.0 0.6 1.8 2.6 3.5 3.3 6.0 8.0 5.9 12.9 15.0 15.0 15.0 15.0 15.0 15.0 15.0 15.0 15.0 15.0 15.0 15.0 12.1 15.0 15.0 15.0 15.0 7.6 12.8 15.0 4.1 14.6 12.6 4.1 10.5 14.3 1.8 1.3 15.0 10.6
2.0 1.9 5.6 15.0 4.4 2.3 14.4 15.0 15.0 15.0 13.4 13.4 15.0 15.0 15.0 15.0 12.4 15.0 10.2 15.0 15.0 15.0 15.0 13.8 11.4 15.0 9.5 15.0 10.8 8.6 15.0 15.0 6.0 1.1 5.4 6.1 6.5 2.0 1.5 11.2 2.0 10.0 15.0 9.0
14.5 15.0 15.0 15.0 15.0 15.0 15.0 15.0 15.0 15.0 15.0 15.0 15.0 4.8 0.4 2.5 2.5 15.0 15.0 15.0 14.4 15.0 15.0 15.0 15.0 4.2 15.0 15.0 15.0 7.9 1.5 15.0 15.0 5.6 14.6 2.2 11.0 5.9 1.4 4.4 4.1 15.0 14.1 1.0
2.6 4.4 15.0 14.9 15.0 15.0 15.0 15.0 15.0 15.0 15.0 15.0 15.0 15.0 15.0 15.0 14.7 6.1 14.4 15.0 15.0 1.0 14.9 15.0 15.0 15.0 15.0 15.0 1.0 14.8 10.6 0.3 10.8 15.0 15.0 3.2 0.8 4.5 1.1 10.0 6.0 2.8 1.0 0.9
0.9 15.0 15.0 15.0 15.0 15.0 15.0 15.0 15.0 15.0 9.9 10.8 8.0 15.0 9.1 15.0 10.4 13.4 11.6 15.0 13.9 15.0 2.1 6.5 15.0 15.0 15.0 15.0 15.0 14.6 15.0 3.0 14.2 15.0 15.0 15.0 3.1 5.7 3.1 4.5 4.1 4.1 8.9 4.3
15.0 15.0 15.0 15.0 15.0 15.0 15.0 14.7 4.8 1.8 2.2 0.6 8.6 13.7 12.1 15.0 15.0 15.0 1.1 15.0 15.0 13.2 15.0 13.8 0.4 2.9 15.0 15.0 5.8 4.2 15.0 15.0 11.3 15.0 14.9 5.1 5.9 3.5 1.5 3.8 4.4 13.3 13.9 3.4